DAL171 KSFO-KLAX

Flight info

Callsign DAL171
Flight time 0h 59m
Altitude 37000
Route WESLA5 SUSEY EBAYE BURGL IRNMN2
Aircraft A20N/M-SDE2E3FGHIRWXY/LB1

Departure

Time 2026-05-07 23:42
Airport San Francisco International Airport (KSFO)

Arrival

Time 2026-05-08 00:41
Airport Los Angeles International Airport (KLAX)
Time Latitude Longitude Altitude Speed Heading
2026-05-07 23:34 37.61711 -122.38037 17 ft 0 kts 277°
2026-05-07 23:36 37.61704 -122.37945 17 ft 0 kts
2026-05-07 23:36 37.61683 -122.37949 16 ft 0 kts
2026-05-07 23:38 37.61705 -122.37929 17 ft 9 kts 38°
2026-05-07 23:38 37.61783 -122.37835 18 ft 22 kts 58°
2026-05-07 23:38 37.61756 -122.37660 19 ft 22 kts 108°
2026-05-07 23:39 37.61697 -122.37463 20 ft 27 kts 124°
2026-05-07 23:39 37.61597 -122.37223 24 ft 35 kts 116°
2026-05-07 23:39 37.61475 -122.36942 22 ft 40 kts 124°
2026-05-07 23:39 37.61320 -122.36655 21 ft 46 kts 115°
2026-05-07 23:40 37.61167 -122.36292 20 ft 45 kts 121°
2026-05-07 23:40 37.61163 -122.36284 20 ft 45 kts 121°
2026-05-07 23:40 37.61129 -122.36211 20 ft 47 kts 121°
2026-05-07 23:41 37.61126 -122.35886 22 ft 35 kts
2026-05-07 23:41 37.61253 -122.36060 18 ft 16 kts 297°
2026-05-07 23:41 37.61257 -122.36069 17 ft 0 kts 297°
2026-05-07 23:41 37.61269 -122.36094 17 ft 22 kts 303°
2026-05-07 23:42 37.61435 -122.36488 18 ft 83 kts 298°
2026-05-07 23:42 37.61775 -122.37297 18 ft 129 kts 298°
2026-05-07 23:42 37.62265 -122.38416 188 ft 152 kts 301°
2026-05-07 23:42 37.62816 -122.39569 722 ft 157 kts 300°
2026-05-07 23:43 37.63378 -122.40762 1238 ft 164 kts 298°
2026-05-07 23:43 37.63928 -122.42050 1794 ft 170 kts 297°
2026-05-07 23:43 37.64485 -122.43403 2122 ft 178 kts 297°
2026-05-07 23:43 37.65094 -122.44865 2390 ft 200 kts 298°
2026-05-07 23:44 37.65795 -122.46518 2706 ft 226 kts 298°
2026-05-07 23:44 37.66567 -122.48313 3480 ft 235 kts 298°
2026-05-07 23:44 37.67091 -122.50260 4472 ft 237 kts 275°
2026-05-07 23:44 37.66911 -122.52312 5444 ft 239 kts 249°
2026-05-07 23:45 37.66003 -122.54033 6359 ft 243 kts 223°
2026-05-07 23:45 37.64506 -122.55049 7226 ft 253 kts 196°
2026-05-07 23:45 37.62679 -122.55097 7703 ft 278 kts 169°
2026-05-07 23:45 37.60778 -122.54239 8151 ft 302 kts 159°
2026-05-07 23:46 37.58802 -122.53076 8510 ft 325 kts 156°
2026-05-07 23:46 37.56872 -122.51905 9079 ft 334 kts 156°
2026-05-07 23:46 37.54766 -122.50664 10083 ft 333 kts 157°
2026-05-07 23:46 37.52665 -122.49470 11016 ft 331 kts 158°
2026-05-07 23:47 37.50534 -122.48221 11588 ft 345 kts 153°
2026-05-07 23:47 37.48513 -122.46531 12274 ft 353 kts 143°
2026-05-07 23:47 37.46739 -122.44423 13035 ft 359 kts 134°
2026-05-07 23:47 37.45040 -122.42087 13809 ft 363 kts 134°
2026-05-07 23:48 37.43326 -122.39744 14500 ft 366 kts 134°
2026-05-07 23:48 37.41611 -122.37410 15197 ft 369 kts 134°
2026-05-07 23:48 37.39855 -122.35026 15860 ft 373 kts 133°
2026-05-07 23:48 37.38085 -122.32625 16538 ft 377 kts 133°
2026-05-07 23:49 37.36296 -122.30199 17211 ft 380 kts 133°
2026-05-07 23:49 37.34511 -122.27780 17884 ft 384 kts 133°
2026-05-07 23:49 37.32685 -122.25307 18499 ft 389 kts 133°
2026-05-07 23:49 37.30812 -122.22772 18804 ft 403 kts 133°
2026-05-07 23:50 37.28898 -122.20182 19517 ft 406 kts 133°
2026-05-07 23:50 37.26964 -122.17567 20286 ft 410 kts 133°
2026-05-07 23:50 37.25015 -122.14933 21010 ft 414 kts 133°
2026-05-07 23:50 37.23154 -122.12421 21655 ft 418 kts 133°
2026-05-07 23:51 37.21180 -122.09757 22347 ft 422 kts 133°
2026-05-07 23:51 37.19163 -122.07039 23011 ft 427 kts 133°
2026-05-07 23:51 37.17131 -122.04304 23673 ft 430 kts 133°
2026-05-07 23:51 37.15087 -122.01553 24204 ft 434 kts 133°
2026-05-07 23:52 37.13041 -121.98803 24718 ft 438 kts 133°
2026-05-07 23:52 37.10931 -121.95968 25232 ft 441 kts 133°
2026-05-07 23:52 37.08857 -121.93184 25693 ft 444 kts 133°
2026-05-07 23:52 37.06744 -121.90351 26084 ft 447 kts 133°
2026-05-07 23:53 37.04611 -121.87494 26472 ft 451 kts 133°
2026-05-07 23:53 37.02464 -121.84620 26886 ft 453 kts 133°
2026-05-07 23:53 37.00310 -121.81738 27294 ft 455 kts 133°
2026-05-07 23:53 36.98135 -121.78833 27674 ft 458 kts 133°
2026-05-07 23:54 36.95955 -121.75922 28041 ft 460 kts 133°
2026-05-07 23:54 36.93757 -121.72991 28419 ft 462 kts 133°
2026-05-07 23:54 36.91580 -121.70090 28763 ft 465 kts 133°
2026-05-07 23:54 36.89366 -121.67142 29103 ft 467 kts 133°
2026-05-07 23:55 36.87137 -121.64177 29423 ft 469 kts 133°
2026-05-07 23:55 36.84903 -121.61207 29773 ft 470 kts 133°
2026-05-07 23:55 36.82655 -121.58222 30060 ft 473 kts 133°
2026-05-07 23:55 36.80402 -121.55234 30340 ft 475 kts 133°
2026-05-07 23:56 36.78132 -121.52226 30643 ft 477 kts 133°
2026-05-07 23:56 36.75943 -121.49328 30917 ft 478 kts 133°
2026-05-07 23:56 36.73683 -121.46339 31140 ft 480 kts 133°
2026-05-07 23:56 36.71387 -121.43305 31366 ft 482 kts 133°
2026-05-07 23:57 36.69095 -121.40278 31759 ft 479 kts 133°
2026-05-07 23:57 36.66961 -121.37463 32206 ft 476 kts 133°
2026-05-07 23:57 36.64643 -121.34408 32587 ft 474 kts 133°
2026-05-07 23:57 36.62378 -121.31425 32942 ft 473 kts 133°
2026-05-07 23:58 36.60122 -121.28457 33282 ft 472 kts 133°
2026-05-07 23:58 36.57864 -121.25488 33594 ft 472 kts 134°
2026-05-07 23:58 36.55634 -121.22561 33910 ft 471 kts 134°
2026-05-07 23:58 36.53383 -121.19607 34209 ft 470 kts 134°
2026-05-07 23:59 36.51136 -121.16662 34468 ft 470 kts 134°
2026-05-07 23:59 36.48882 -121.13709 34706 ft 470 kts 134°
2026-05-07 23:59 36.46627 -121.10759 34946 ft 470 kts 134°
2026-05-07 23:59 36.44382 -121.07822 35175 ft 470 kts 134°
2026-05-08 00:00 36.42141 -121.04873 35397 ft 470 kts 132°
2026-05-08 00:00 36.39988 -121.01830 35618 ft 470 kts 130°
2026-05-08 00:00 36.37872 -120.98731 35800 ft 471 kts 130°
2026-05-08 00:00 36.35787 -120.95673 36001 ft 471 kts 130°
2026-05-08 00:01 36.33667 -120.92588 36209 ft 471 kts 130°
2026-05-08 00:01 36.31524 -120.89495 36390 ft 471 kts 131°
2026-05-08 00:01 36.29380 -120.86415 36570 ft 472 kts 131°
2026-05-08 00:01 36.27245 -120.83356 36749 ft 472 kts 131°
2026-05-08 00:02 36.25093 -120.80278 36926 ft 472 kts 131°
2026-05-08 00:02 36.22967 -120.77241 37036 ft 472 kts 131°
2026-05-08 00:02 36.18643 -120.71071 37035 ft 476 kts 131°
2026-05-08 00:03 36.14300 -120.64883 37037 ft 475 kts 131°
2026-05-08 00:03 36.09958 -120.58709 37037 ft 476 kts 131°
2026-05-08 00:04 36.05610 -120.52537 37048 ft 476 kts 131°
2026-05-08 00:04 36.01287 -120.46412 37037 ft 476 kts 131°
2026-05-08 00:05 35.96931 -120.40252 37031 ft 476 kts 131°
2026-05-08 00:05 35.92578 -120.34105 37032 ft 475 kts 131°
2026-05-08 00:06 35.88119 -120.28094 37028 ft 475 kts 136°
2026-05-08 00:06 35.82939 -120.23069 37038 ft 475 kts 147°
2026-05-08 00:07 35.77347 -120.18871 37029 ft 475 kts 148°
2026-05-08 00:07 35.71710 -120.14629 37020 ft 475 kts 148°
2026-05-08 00:08 35.66244 -120.10516 37023 ft 475 kts 148°
2026-05-08 00:08 35.60608 -120.06263 37030 ft 475 kts 148°
2026-05-08 00:09 35.54969 -120.02007 37029 ft 476 kts 148°
2026-05-08 00:09 35.49321 -119.97756 37022 ft 476 kts 148°
2026-05-08 00:10 35.43710 -119.93539 37028 ft 476 kts 148°
2026-05-08 00:10 35.38062 -119.89303 37027 ft 476 kts 148°
2026-05-08 00:11 35.32405 -119.85066 37012 ft 477 kts 148°
2026-05-08 00:11 35.30010 -119.83273 36847 ft 477 kts 148°
2026-05-08 00:11 35.27777 -119.81430 36500 ft 473 kts 143°
2026-05-08 00:12 35.25566 -119.79349 35992 ft 470 kts 142°
2026-05-08 00:12 35.22995 -119.76926 35407 ft 466 kts 142°
2026-05-08 00:12 35.20432 -119.74525 34822 ft 463 kts 142°
2026-05-08 00:12 35.17874 -119.72137 34255 ft 460 kts 141°
2026-05-08 00:13 35.15377 -119.69809 33669 ft 456 kts 141°
2026-05-08 00:13 35.12853 -119.67457 33028 ft 453 kts 141°
2026-05-08 00:13 35.10353 -119.65127 32413 ft 455 kts 141°
2026-05-08 00:13 35.07820 -119.62769 31825 ft 461 kts 141°
2026-05-08 00:14 35.05253 -119.60381 31259 ft 464 kts 141°
2026-05-08 00:14 35.02681 -119.57990 30702 ft 465 kts 141°
2026-05-08 00:14 35.00117 -119.55609 30167 ft 464 kts 141°
2026-05-08 00:14 34.97558 -119.53234 29544 ft 461 kts 141°
2026-05-08 00:15 34.95020 -119.50881 28910 ft 456 kts 141°
2026-05-08 00:15 34.92536 -119.48581 28329 ft 451 kts 141°
2026-05-08 00:15 34.90019 -119.46261 27715 ft 446 kts 142°
2026-05-08 00:15 34.87570 -119.44059 27147 ft 441 kts 142°
2026-05-08 00:16 34.85099 -119.41860 26572 ft 437 kts 142°
2026-05-08 00:16 34.82660 -119.39691 26002 ft 434 kts 142°
2026-05-08 00:16 34.80232 -119.37528 25468 ft 430 kts 142°
2026-05-08 00:16 34.77827 -119.35384 24929 ft 427 kts 142°
2026-05-08 00:17 34.75446 -119.33259 24406 ft 423 kts 142°
2026-05-08 00:17 34.73083 -119.31162 23887 ft 419 kts 143°
2026-05-08 00:17 34.70728 -119.29101 23324 ft 415 kts 143°
2026-05-08 00:17 34.68390 -119.27066 22722 ft 412 kts 143°
2026-05-08 00:18 34.66095 -119.25068 22135 ft 409 kts 143°
2026-05-08 00:18 34.63800 -119.23071 21600 ft 405 kts 143°
2026-05-08 00:18 34.61520 -119.21103 21075 ft 400 kts 143°
2026-05-08 00:18 34.59256 -119.19156 20552 ft 396 kts 143°
2026-05-08 00:19 34.57023 -119.17234 20053 ft 391 kts 143°
2026-05-08 00:19 34.54821 -119.15330 19546 ft 388 kts 143°
2026-05-08 00:19 34.52646 -119.13407 19064 ft 384 kts 142°
2026-05-08 00:19 34.50506 -119.11502 18546 ft 381 kts 142°
2026-05-08 00:20 34.48368 -119.09599 17987 ft 380 kts 142°
2026-05-08 00:20 34.46241 -119.07712 17386 ft 378 kts 142°
2026-05-08 00:20 34.44159 -119.05870 16829 ft 375 kts 142°
2026-05-08 00:20 34.42065 -119.04035 16385 ft 369 kts 143°
2026-05-08 00:21 34.39990 -119.02240 16075 ft 361 kts 143°
2026-05-08 00:21 34.37975 -119.00503 15779 ft 352 kts 143°
2026-05-08 00:21 34.36075 -118.98866 15490 ft 344 kts 143°
2026-05-08 00:21 34.34077 -118.97140 15208 ft 337 kts 143°
2026-05-08 00:22 34.32207 -118.95485 14914 ft 329 kts 141°
2026-05-08 00:22 34.30515 -118.93943 14645 ft 323 kts 141°
2026-05-08 00:22 34.28762 -118.92335 14374 ft 317 kts 141°
2026-05-08 00:22 34.27020 -118.90741 14094 ft 312 kts 141°
2026-05-08 00:23 34.25291 -118.89167 13812 ft 311 kts 141°
2026-05-08 00:23 34.23565 -118.87583 13507 ft 313 kts 141°
2026-05-08 00:23 34.21839 -118.85991 13197 ft 311 kts 141°
2026-05-08 00:23 34.20120 -118.84404 12895 ft 311 kts 141°
2026-05-08 00:24 34.18410 -118.82831 12585 ft 311 kts 141°
2026-05-08 00:24 34.16693 -118.81253 12288 ft 311 kts 140°
2026-05-08 00:24 34.15075 -118.79538 11991 ft 308 kts 136°
2026-05-08 00:24 34.13491 -118.77803 11679 ft 307 kts 136°
2026-05-08 00:25 34.11901 -118.76069 11394 ft 308 kts 136°
2026-05-08 00:25 34.10319 -118.74349 11110 ft 307 kts 136°
2026-05-08 00:25 34.08757 -118.72653 10917 ft 300 kts 136°
2026-05-08 00:25 34.07200 -118.70962 10595 ft 299 kts 137°
2026-05-08 00:26 34.05662 -118.69293 10201 ft 296 kts 137°
2026-05-08 00:26 34.04163 -118.67644 9639 ft 295 kts 132°
2026-05-08 00:26 34.03065 -118.65601 9306 ft 284 kts 109°
2026-05-08 00:26 34.02668 -118.63296 8962 ft 288 kts 94°
2026-05-08 00:27 34.02452 -118.60880 8603 ft 288 kts 95°
2026-05-08 00:27 34.02233 -118.58493 8257 ft 286 kts 95°
2026-05-08 00:27 34.02013 -118.56146 8058 ft 278 kts 95°
2026-05-08 00:27 34.01797 -118.53874 7933 ft 268 kts 95°
2026-05-08 00:28 34.01587 -118.51640 7572 ft 268 kts 95°
2026-05-08 00:28 34.01380 -118.49447 7470 ft 256 kts 95°
2026-05-08 00:28 34.01181 -118.47348 7272 ft 249 kts 95°
2026-05-08 00:28 34.01130 -118.45279 6953 ft 247 kts 83°
2026-05-08 00:29 34.01435 -118.43265 6610 ft 248 kts 76°
2026-05-08 00:29 34.01806 -118.41218 6243 ft 250 kts 76°
2026-05-08 00:29 34.02129 -118.39356 6052 ft 244 kts 77°
2026-05-08 00:29 34.02475 -118.37339 6007 ft 248 kts 77°
2026-05-08 00:30 34.02797 -118.35290 6004 ft 248 kts 82°
2026-05-08 00:30 34.02997 -118.33225 6006 ft 248 kts 82°
2026-05-08 00:30 34.03202 -118.31155 6005 ft 250 kts 82°
2026-05-08 00:30 34.03411 -118.29089 6003 ft 249 kts 82°
2026-05-08 00:31 34.03629 -118.27009 6003 ft 249 kts 82°
2026-05-08 00:31 34.03852 -118.24945 6002 ft 249 kts 81°
2026-05-08 00:31 34.04073 -118.22907 6002 ft 249 kts 81°
2026-05-08 00:31 34.04298 -118.20836 5977 ft 249 kts 81°
2026-05-08 00:32 34.04523 -118.18772 5979 ft 249 kts 81°
2026-05-08 00:32 34.04748 -118.16700 5979 ft 249 kts 81°
2026-05-08 00:32 34.04974 -118.14625 5977 ft 249 kts 81°
2026-05-08 00:32 34.05197 -118.12554 5984 ft 250 kts 81°
2026-05-08 00:33 34.05422 -118.10474 5969 ft 249 kts 81°
2026-05-08 00:33 34.05644 -118.08412 5979 ft 249 kts 82°
2026-05-08 00:33 34.05633 -118.06340 5984 ft 250 kts 105°
2026-05-08 00:33 34.04847 -118.04525 5888 ft 250 kts 135°
2026-05-08 00:34 34.03417 -118.03369 5535 ft 245 kts 166°
2026-05-08 00:34 34.01771 -118.03239 5119 ft 239 kts 197°
2026-05-08 00:34 34.00331 -118.04133 4710 ft 233 kts 227°
2026-05-08 00:34 33.99285 -118.05596 4339 ft 230 kts 240°
2026-05-08 00:35 33.98692 -118.07162 4014 ft 227 kts 256°
2026-05-08 00:35 33.98379 -118.09009 3687 ft 221 kts 264°
2026-05-08 00:35 33.98206 -118.10815 3370 ft 214 kts 265°
2026-05-08 00:35 33.98028 -118.12565 3047 ft 208 kts 264°
2026-05-08 00:36 33.97854 -118.14277 2730 ft 206 kts 264°
2026-05-08 00:36 33.97676 -118.16019 2612 ft 214 kts 264°
2026-05-08 00:36 33.97493 -118.17805 2602 ft 213 kts 264°
2026-05-08 00:36 33.97316 -118.19525 2601 ft 204 kts 264°
2026-05-08 00:37 33.97152 -118.21158 2603 ft 189 kts 264°
2026-05-08 00:37 33.96998 -118.22651 2598 ft 169 kts 263°
2026-05-08 00:37 33.96856 -118.24048 2609 ft 177 kts 264°
2026-05-08 00:38 33.96563 -118.26922 2294 ft 166 kts 264°
2026-05-08 00:38 33.96424 -118.28291 2075 ft 164 kts 263°
2026-05-08 00:38 33.96285 -118.29636 1872 ft 155 kts 263°
2026-05-08 00:38 33.96163 -118.30844 1679 ft 137 kts 263°
2026-05-08 00:39 33.96053 -118.31919 1495 ft 121 kts 263°
2026-05-08 00:39 33.95951 -118.32923 1350 ft 128 kts 263°
2026-05-08 00:39 33.95841 -118.34000 1175 ft 130 kts 263°
2026-05-08 00:39 33.95733 -118.35057 1005 ft 124 kts 264°
2026-05-08 00:40 33.95630 -118.36067 840 ft 120 kts 262°
2026-05-08 00:40 33.95526 -118.37087 677 ft 125 kts 262°
2026-05-08 00:40 33.95422 -118.38136 430 ft 128 kts 261°
2026-05-08 00:40 33.95318 -118.39155 298 ft 122 kts 260°
2026-05-08 00:41 33.95210 -118.40177 184 ft 125 kts 261°
2026-05-08 00:41 33.95106 -118.41189 128 ft 114 kts 260°
2026-05-08 00:41 33.95029 -118.41918 125 ft 60 kts 266°
2026-05-08 00:41 33.94996 -118.42333 125 ft 47 kts 258°
2026-05-08 00:42 33.94880 -118.42643 124 ft 26 kts 233°
2026-05-08 00:42 33.94849 -118.42684 124 ft 0 kts 222°
2026-05-08 00:43 33.94848 -118.42684 124 ft 1 kts 222°
2026-05-08 00:44 33.94832 -118.42701 125 ft 7 kts 222°
2026-05-08 00:44 33.94754 -118.42761 123 ft 18 kts 202°
2026-05-08 00:44 33.94643 -118.42767 122 ft 15 kts 151°
2026-05-08 00:44 33.94636 -118.42694 125 ft 13 kts 84°
2026-05-08 00:45 33.94652 -118.42548 125 ft 21 kts 83°
2026-05-08 00:45 33.94672 -118.42355 125 ft 25 kts 81°
2026-05-08 00:45 33.94691 -118.42160 122 ft 18 kts 83°
2026-05-08 00:45 33.94706 -118.42021 125 ft 17 kts 82°
2026-05-08 00:46 33.94723 -118.41865 125 ft 20 kts 83°
2026-05-08 00:46 33.94741 -118.41685 125 ft 23 kts 83°
2026-05-08 00:46 33.94764 -118.41491 124 ft 23 kts 83°
2026-05-08 00:46 33.94793 -118.41305 125 ft 20 kts 96°
2026-05-08 00:47 33.94810 -118.41160 125 ft 19 kts 85°
2026-05-08 00:47 33.94826 -118.40988 122 ft 22 kts 82°
2026-05-08 00:47 33.94780 -118.40875 124 ft 15 kts 163°
2026-05-08 00:47 33.94679 -118.40883 122 ft 16 kts 204°
2026-05-08 00:48 33.94592 -118.40875 122 ft 8 kts 107°
2026-05-08 00:48 33.94601 -118.40824 124 ft 0 kts 59°